TimePDT,TemperatureF,Dew PointF,Humidity,Sea Level PressureIn,VisibilityMPH,Wind Direction,Wind SpeedMPH,Gust SpeedMPH,PrecipitationIn,Events,Conditions,WindDirDegrees,DateUTC
12:15 AM,44.6,17.6,34,30.19,10.0,NNW,12.7,-,N/A,,Clear,340,2012-10-06 07:15:00
12:35 AM,46.4,17.6,32,30.19,10.0,NNW,10.4,-,N/A,,Clear,340,2012-10-06 07:35:00
12:55 AM,46.4,15.8,29,30.19,10.0,NNW,13.8,17.3,N/A,,Clear,340,2012-10-06 07:55:00
1:15 AM,46.4,15.8,29,30.19,10.0,North,13.8,-,N/A,,Clear,350,2012-10-06 08:15:00
1:35 AM,46.4,15.8,29,30.19,10.0,NNW,13.8,-,N/A,,Clear,340,2012-10-06 08:35:00
1:55 AM,46.4,14.0,27,30.19,10.0,North,16.1,-,N/A,,Clear,350,2012-10-06 08:55:00
2:15 AM,46.4,12.2,25,30.19,10.0,North,13.8,-,N/A,,Clear,350,2012-10-06 09:15:00
2:35 AM,44.6,12.2,27,30.19,10.0,NNW,15.0,20.7,N/A,,Clear,340,2012-10-06 09:35:00
2:55 AM,44.6,12.2,27,30.19,10.0,NNW,15.0,21.9,N/A,,Clear,340,2012-10-06 09:55:00
3:15 AM,44.6,12.2,27,30.19,10.0,North,15.0,20.7,N/A,,Clear,350,2012-10-06 10:15:00
3:35 AM,44.6,12.2,27,30.18,10.0,NNW,16.1,21.9,N/A,,Clear,340,2012-10-06 10:35:00
3:55 AM,44.6,12.2,27,30.18,10.0,NNW,16.1,20.7,N/A,,Clear,340,2012-10-06 10:55:00
4:15 AM,42.8,12.2,29,30.18,10.0,NNW,13.8,-,N/A,,Clear,340,2012-10-06 11:15:00
4:35 AM,42.8,12.2,29,30.17,10.0,NNW,13.8,-,N/A,,Clear,340,2012-10-06 11:35:00
4:55 AM,42.8,12.2,29,30.17,10.0,NNW,16.1,-,N/A,,Clear,340,2012-10-06 11:55:00
5:15 AM,42.8,12.2,29,30.17,10.0,North,17.3,-,N/A,,Clear,350,2012-10-06 12:15:00
5:35 AM,42.8,12.2,29,30.18,10.0,NNW,15.0,-,N/A,,Clear,340,2012-10-06 12:35:00
5:55 AM,42.8,12.2,29,30.18,10.0,NNW,15.0,-,N/A,,Clear,340,2012-10-06 12:55:00
6:15 AM,42.8,12.2,29,30.18,10.0,North,12.7,-,N/A,,Clear,350,2012-10-06 13:15:00
6:35 AM,41.0,10.4,29,30.18,10.0,NNW,12.7,-,N/A,,Clear,330,2012-10-06 13:35:00
6:55 AM,42.8,12.2,29,30.18,10.0,NNW,13.8,-,N/A,,Clear,340,2012-10-06 13:55:00
7:15 AM,42.8,12.2,29,30.18,10.0,North,10.4,-,N/A,,Clear,350,2012-10-06 14:15:00
7:35 AM,42.8,12.2,29,30.18,10.0,North,12.7,-,N/A,,Clear,350,2012-10-06 14:35:00
7:55 AM,44.6,12.2,27,30.19,10.0,North,8.1,-,N/A,,Clear,360,2012-10-06 14:55:00
8:15 AM,44.6,14.0,29,30.18,10.0,North,10.4,-,N/A,,Clear,360,2012-10-06 15:15:00
8:35 AM,48.2,14.0,25,30.19,10.0,North,10.4,-,N/A,,Clear,350,2012-10-06 15:35:00
8:55 AM,50.0,15.8,26,30.18,10.0,North,10.4,17.3,N/A,,Clear,350,2012-10-06 15:55:00
9:15 AM,51.8,15.8,24,30.18,10.0,North,12.7,-,N/A,,Clear,350,2012-10-06 16:15:00
9:35 AM,53.6,15.8,22,30.18,10.0,NNW,12.7,19.6,N/A,,Clear,340,2012-10-06 16:35:00
9:55 AM,53.6,15.8,22,30.18,10.0,NNW,15.0,19.6,N/A,,Clear,340,2012-10-06 16:55:00
10:15 AM,55.4,15.8,21,30.18,10.0,North,16.1,20.7,N/A,,Clear,350,2012-10-06 17:15:00
10:35 AM,57.2,15.8,20,30.18,10.0,NNW,15.0,18.4,N/A,,Clear,340,2012-10-06 17:35:00
10:55 AM,59.0,17.6,20,30.18,10.0,NNW,17.3,-,N/A,,Clear,330,2012-10-06 17:55:00
11:15 AM,60.8,17.6,19,30.18,10.0,NNW,12.7,19.6,N/A,,Clear,340,2012-10-06 18:15:00
11:35 AM,62.6,17.6,18,30.17,10.0,NNW,12.7,17.3,N/A,,Clear,340,2012-10-06 18:35:00
11:55 AM,62.6,17.6,18,30.17,10.0,North,10.4,18.4,N/A,,Clear,350,2012-10-06 18:55:00
12:15 PM,64.4,17.6,16,30.16,10.0,NNW,10.4,17.3,N/A,,Clear,330,2012-10-06 19:15:00
12:35 PM,66.2,19.4,17,30.16,10.0,NW,10.4,-,N/A,,Clear,310,2012-10-06 19:35:00
12:55 PM,68.0,19.4,16,30.15,10.0,NNE,8.1,-,N/A,,Clear,20,2012-10-06 19:55:00
1:15 PM,66.2,17.6,15,30.14,10.0,NE,4.6,-,N/A,,Clear,40,2012-10-06 20:15:00
1:35 PM,69.8,19.4,15,30.13,10.0,North,10.4,19.6,N/A,,Clear,360,2012-10-06 20:35:00
1:55 PM,69.8,19.4,15,30.13,10.0,North,13.8,-,N/A,,Clear,350,2012-10-06 20:55:00
2:15 PM,69.8,19.4,15,30.12,10.0,North,12.7,-,N/A,,Clear,350,2012-10-06 21:15:00
2:35 PM,69.8,19.4,15,30.11,10.0,North,13.8,-,N/A,,Clear,350,2012-10-06 21:35:00
2:55 PM,69.8,19.4,15,30.11,10.0,North,16.1,-,N/A,,Clear,350,2012-10-06 21:55:00
3:15 PM,69.8,17.6,14,30.11,10.0,North,17.3,20.7,N/A,,Clear,350,2012-10-06 22:15:00
3:35 PM,68.0,17.6,15,30.10,10.0,NNW,17.3,21.9,N/A,,Clear,340,2012-10-06 22:35:00
4:15 PM,66.2,15.8,14,30.10,10.0,NNW,12.7,-,N/A,,Clear,340,2012-10-06 23:15:00
4:35 PM,66.2,15.8,14,30.09,10.0,North,17.3,-,N/A,,Clear,350,2012-10-06 23:35:00
4:55 PM,66.2,15.8,14,30.09,10.0,North,16.1,20.7,N/A,,Clear,350,2012-10-06 23:55:00
5:15 PM,66.2,15.8,14,30.09,10.0,North,16.1,-,N/A,,Clear,350,2012-10-07 00:15:00
5:35 PM,64.4,15.8,15,30.09,10.0,North,15.0,-,N/A,,Clear,350,2012-10-07 00:35:00
5:55 PM,62.6,15.8,16,30.09,10.0,North,13.8,-,N/A,,Clear,360,2012-10-07 00:55:00
6:15 PM,60.8,15.8,17,30.09,10.0,North,16.1,-,N/A,,Clear,360,2012-10-07 01:15:00
6:35 PM,57.2,14.0,18,30.10,10.0,North,11.5,-,N/A,,Clear,360,2012-10-07 01:35:00
6:55 PM,55.4,12.2,18,30.10,10.0,North,9.2,-,N/A,,Clear,350,2012-10-07 01:55:00
7:15 PM,50.0,12.2,22,30.10,10.0,NNW,10.4,-,N/A,,Clear,340,2012-10-07 02:15:00
7:35 PM,48.2,14.0,25,30.10,10.0,NNW,9.2,-,N/A,,Clear,330,2012-10-07 02:35:00
7:55 PM,46.4,14.0,27,30.11,10.0,NNW,6.9,-,N/A,,Clear,340,2012-10-07 02:55:00
8:15 PM,46.4,12.2,25,30.11,10.0,NNE,11.5,-,N/A,,Clear,30,2012-10-07 03:15:00
8:35 PM,48.2,10.4,22,30.12,10.0,NNW,11.5,16.1,N/A,,Clear,340,2012-10-07 03:35:00
8:55 PM,50.0,10.4,20,30.12,10.0,North,10.4,16.1,N/A,,Clear,360,2012-10-07 03:55:00
9:15 PM,50.0,8.6,19,30.12,10.0,North,10.4,-,N/A,,Clear,350,2012-10-07 04:15:00
9:35 PM,50.0,8.6,19,30.13,10.0,North,11.5,-,N/A,,Clear,350,2012-10-07 04:35:00
9:55 PM,48.2,8.6,20,30.13,10.0,North,8.1,-,N/A,,Clear,10,2012-10-07 04:55:00
10:15 PM,48.2,6.8,19,30.13,10.0,NNW,10.4,-,N/A,,Clear,330,2012-10-07 05:15:00
10:35 PM,46.4,6.8,20,30.13,10.0,NNW,6.9,-,N/A,,Clear,330,2012-10-07 05:35:00
10:55 PM,46.4,8.6,22,30.13,10.0,NNW,8.1,-,N/A,,Clear,340,2012-10-07 05:55:00
11:15 PM,46.4,6.8,20,30.13,10.0,NNW,9.2,-,N/A,,Clear,340,2012-10-07 06:15:00
11:35 PM,46.4,6.8,20,30.13,10.0,NNW,11.5,-,N/A,,Clear,340,2012-10-07 06:35:00
11:55 PM,46.4,6.8,20,30.13,10.0,NNW,11.5,-,N/A,,Clear,330,2012-10-07 06:55:00